When you browse on this site, cookies collect data to enhance your experience and personalize the content and advertising you see.
Visit our Privacy Policy to learn more. By continuing to use the site, you agree to this use of cookies and data.
  • en France
  • Liste des pays
  • À 7 jours
  • Température de l'eau
  • Carte météo
  • Widgets météo
  • user-avatar
    Se connecter

    Météo par heure à Canillo

    Ce jour, 19 Février, Mercredi

    Heure Température Précipitation Vent Pression Humidité
    00:00 -4°C° 0 mm 2 m/s 623 mmHg 87%
    01:00 -4°C° 0 mm 2 m/s 623 mmHg 85%
    02:00 -4°C° 0 mm 2 m/s 622 mmHg 82%
    03:00 -4°C° 0 mm 2 m/s 622 mmHg 79%
    04:00 -4°C° 0 mm 2 m/s 622 mmHg 75%
    05:00 -4°C° 0 mm 2 m/s 622 mmHg 71%
    06:00 -4°C° 0 mm 2 m/s 622 mmHg 66%
    07:00 -3°C° 0 mm 2 m/s 623 mmHg 63%
    08:00 -2°C° 0 mm 2 m/s 624 mmHg 61%
    09:00 -1°C° 0 mm 2 m/s 624 mmHg 58%
    10:00 +2°C° 0 mm 2 m/s 625 mmHg 50%
    11:00 +4°C° 0 mm 2 m/s 626 mmHg 41%
    12:00 +7°C° 0 mm 2 m/s 626 mmHg 32%
    13:00 +7°C° 0 mm 1 m/s 626 mmHg 36%
    14:00 +7°C° 0 mm 1 m/s 625 mmHg 40%
    15:00 +7°C° 0 mm 1 m/s 624 mmHg 43%
    16:00 +5°C° 0 mm 1 m/s 623 mmHg 56%
    17:00 +3°C° 0 mm 1 m/s 622 mmHg 68%
    18:00 0°C° 0 mm 1 m/s 621 mmHg 81%
    19:00 0°C° 0 mm 1 m/s 622 mmHg 75%
    20:00 +1°C° 0 mm 1 m/s 622 mmHg 69%
    21:00 +1°C° 0 mm 1 m/s 622 mmHg 62%
    22:00 +1°C° 0 mm 1 m/s 621 mmHg 58%
    23:00 +1°C° 0 mm 1 m/s 621 mmHg 54%

    Demain, 20 Février, Jeudi

    Heure Température Précipitation Vent Pression Humidité
    00:00 +1°C° 0 mm 1 m/s 621 mmHg 50%
    01:00 +1°C° 0 mm 1 m/s 621 mmHg 46%
    02:00 +1°C° 0 mm 1 m/s 620 mmHg 43%
    03:00 +1°C° 0 mm 1 m/s 620 mmHg 39%
    04:00 +2°C° 0 mm 1 m/s 620 mmHg 36%
    05:00 +2°C° 0 mm 1 m/s 620 mmHg 34%
    06:00 +2°C° 0 mm 1 m/s 620 mmHg 31%
    07:00 +4°C° 0 mm 1 m/s 621 mmHg 31%
    08:00 +6°C° 0 mm 1 m/s 622 mmHg 30%
    09:00 +7°C° 0 mm 0 m/s 622 mmHg 29%
    10:00 +8°C° 0 mm 0 m/s 623 mmHg 28%
    11:00 +10°C° 0 mm 1 m/s 623 mmHg 27%
    12:00 +12°C° 0 mm 1 m/s 624 mmHg 26%
    13:00 +11°C° 0 mm 1 m/s 623 mmHg 29%
    14:00 +11°C° 0 mm 1 m/s 623 mmHg 33%
    15:00 +10°C° 0 mm 1 m/s 623 mmHg 36%
    16:00 +8°C° 0 mm 1 m/s 622 mmHg 46%
    17:00 +5°C° 0 mm 1 m/s 621 mmHg 57%
    18:00 +3°C° 0 mm 1 m/s 620 mmHg 67%
    19:00 +2°C° 0 mm 1 m/s 621 mmHg 66%
    20:00 +2°C° 0 mm 1 m/s 621 mmHg 64%
    21:00 +2°C° 0 mm 1 m/s 621 mmHg 63%
    22:00 +2°C° 0 mm 1 m/s 621 mmHg 67%
    23:00 +1°C° 0 mm 1 m/s 622 mmHg 71%

    Après-demain, 21 Février, Vendredi

    Heure Température Précipitation Vent Pression Humidité
    00:00 +1°C° 0 mm 1 m/s 622 mmHg 75%
    01:00 +1°C° 0 mm 1 m/s 622 mmHg 75%
    02:00 +1°C° 0 mm 1 m/s 622 mmHg 76%
    03:00 +1°C° 0 mm 1 m/s 622 mmHg 77%
    04:00 +1°C° 0 mm 1 m/s 622 mmHg 74%
    05:00 0°C° 0 mm 1 m/s 622 mmHg 72%
    06:00 0°C° 0 mm 1 m/s 622 mmHg 70%
    13:00 +9°C° 0 mm 1 m/s 626 mmHg 46%
    14:00 +9°C° 0 mm 1 m/s 625 mmHg 47%
    15:00 +9°C° 0 mm 1 m/s 625 mmHg 49%
    16:00 +7°C° 0 mm 1 m/s 624 mmHg 60%
    17:00 +5°C° 0 mm 1 m/s 623 mmHg 71%
    18:00 +2°C° 0 mm 1 m/s 623 mmHg 82%
    19:00 +2°C° 0 mm 1 m/s 623 mmHg 74%
    20:00 +2°C° 0 mm 1 m/s 623 mmHg 67%
    21:00 +2°C° 0 mm 1 m/s 623 mmHg 59%
    22:00 +2°C° 0 mm 1 m/s 623 mmHg 54%
    23:00 +2°C° 0 mm 1 m/s 623 mmHg 49%

    22 Février, Samedi

    Heure Température Précipitation Vent Pression Humidité
    00:00 +2°C° 0 mm 1 m/s 623 mmHg 44%
    01:00 +2°C° 0 mm 1 m/s 623 mmHg 39%
    02:00 +2°C° 0 mm 1 m/s 623 mmHg 33%
    03:00 +2°C° 0 mm 1 m/s 623 mmHg 28%
    04:00 +2°C° 0 mm 1 m/s 623 mmHg 27%
    05:00 +2°C° 0 mm 1 m/s 623 mmHg 26%
    06:00 +2°C° 0 mm 1 m/s 624 mmHg 25%
    07:00 +4°C° 0 mm 1 m/s 625 mmHg 26%
    08:00 +6°C° 0 mm 1 m/s 626 mmHg 27%
    09:00 +8°C° 0 mm 1 m/s 627 mmHg 28%
    10:00 +9°C° 0 mm 1 m/s 628 mmHg 27%
    11:00 +11°C° 0 mm 1 m/s 628 mmHg 27%
    12:00 +12°C° 0 mm 1 m/s 629 mmHg 27%
    13:00 +12°C° 0 mm 1 m/s 628 mmHg 30%
    14:00 +12°C° 0 mm 1 m/s 628 mmHg 34%
    15:00 +11°C° 0 mm 1 m/s 628 mmHg 38%
    16:00 +9°C° 0 mm 1 m/s 627 mmHg 49%
    17:00 +6°C° 0 mm 0 m/s 626 mmHg 59%
    18:00 +3°C° 0 mm 0 m/s 625 mmHg 70%
    19:00 +3°C° 0 mm 0 m/s 625 mmHg 66%
    20:00 +4°C° 0 mm 1 m/s 626 mmHg 62%
    21:00 +4°C° 0 mm 1 m/s 626 mmHg 58%
    22:00 +4°C° 0 mm 1 m/s 626 mmHg 55%
    23:00 +4°C° 0 mm 1 m/s 626 mmHg 53%

    23 Février, Dimanche

    Heure Température Précipitation Vent Pression Humidité
    00:00 +4°C° 0 mm 1 m/s 626 mmHg 50%
    01:00 +4°C° 0 mm 1 m/s 625 mmHg 49%
    02:00 +4°C° 0 mm 1 m/s 625 mmHg 49%
    03:00 +4°C° 0 mm 1 m/s 625 mmHg 49%
    04:00 +4°C° 0 mm 1 m/s 625 mmHg 48%
    05:00 +4°C° 0 mm 1 m/s 625 mmHg 47%
    06:00 +3°C° 0 mm 1 m/s 625 mmHg 47%
    07:00 +6°C° 0 mm 1 m/s 626 mmHg 45%
    08:00 +7°C° 0 mm 0 m/s 627 mmHg 43%
    09:00 +9°C° 0 mm 0 m/s 628 mmHg 42%
    10:00 +11°C° 0 mm 1 m/s 628 mmHg 39%
    11:00 +12°C° 0 mm 1 m/s 628 mmHg 37%
    12:00 +14°C° 0 mm 1 m/s 629 mmHg 35%
    13:00 +13°C° 0 mm 1 m/s 628 mmHg 38%
    14:00 +13°C° 0 mm 1 m/s 628 mmHg 40%
    15:00 +13°C° 0 mm 1 m/s 627 mmHg 43%
    16:00 +10°C° 0 mm 1 m/s 626 mmHg 54%
    17:00 +8°C° 0 mm 1 m/s 626 mmHg 64%
    18:00 +6°C° 0 mm 1 m/s 625 mmHg 74%
    19:00 +5°C° 0 mm 1 m/s 625 mmHg 71%
    20:00 +5°C° 0 mm 1 m/s 625 mmHg 67%
    21:00 +3°C° 0 mm 2 m/s 625 mmHg 64%
    22:00 +3°C° 0 mm 2 m/s 625 mmHg 58%
    23:00 +3°C° 0 mm 2 m/s 625 mmHg 53%

    24 Février, Lundi

    Heure Température Précipitation Vent Pression Humidité
    00:00 +3°C° 0 mm 2 m/s 625 mmHg 48%
    01:00 +4°C° 0 mm 1 m/s 625 mmHg 47%
    02:00 +3°C° 0 mm 1 m/s 624 mmHg 46%
    03:00 +3°C° 0 mm 1 m/s 624 mmHg 46%
    04:00 +3°C° 0 mm 1 m/s 624 mmHg 46%
    05:00 +3°C° 0 mm 1 m/s 624 mmHg 46%
    06:00 +3°C° 0 mm 1 m/s 624 mmHg 46%
    07:00 +5°C° 0 mm 1 m/s 625 mmHg 43%
    08:00 +7°C° 0 mm 1 m/s 626 mmHg 40%
    09:00 +8°C° 0 mm 0 m/s 627 mmHg 37%
    10:00 +10°C° 0 mm 1 m/s 627 mmHg 36%
    11:00 +11°C° 0 mm 1 m/s 627 mmHg 34%
    12:00 +13°C° 0 mm 1 m/s 627 mmHg 33%
    13:00 +12°C° 0 mm 1 m/s 627 mmHg 35%
    14:00 +12°C° 0 mm 1 m/s 626 mmHg 36%
    15:00 +12°C° 0 mm 1 m/s 625 mmHg 38%
    16:00 +10°C° 0 mm 1 m/s 624 mmHg 47%
    17:00 +8°C° 0 mm 1 m/s 623 mmHg 56%
    18:00 +5°C° 0 mm 0 m/s 622 mmHg 65%
    19:00 +4°C° 0 mm 0 m/s 622 mmHg 64%
    20:00 +5°C° 0 mm 1 m/s 622 mmHg 62%
    21:00 +5°C° 0 mm 1 m/s 622 mmHg 61%
    22:00 +5°C° 0 mm 1 m/s 622 mmHg 60%
    23:00 +4°C° 0 mm 1 m/s 621 mmHg 59%
    Voir plus